Time,TemperatureF,DewpointF,PressureIn,WindDirection,WindDirectionDegrees,WindSpeedMPH,WindSpeedGustMPH,Humidity,HourlyPrecipIn,Conditions,Clouds,dailyrainin,SoftwareType,DateUTC
2013-01-27 00:03:00,30.0,24.0,30.39,NW,325,0.0,-999.0,79,-99.99,,,-99.99,,2013-01-27 05:03:00,
2013-01-27 00:12:00,30.0,24.0,30.39,NW,325,0.0,-999.0,79,-99.99,,,-99.99,,2013-01-27 05:12:00,
2013-01-27 00:22:00,30.0,24.0,30.40,NW,325,0.0,-999.0,79,-99.99,,,-99.99,,2013-01-27 05:22:00,
2013-01-27 00:32:00,30.0,24.0,30.40,NW,325,0.0,-999.0,79,-99.99,,,-99.99,,2013-01-27 05:32:00,
2013-01-27 00:41:00,30.0,24.0,30.40,NW,325,0.0,-999.0,79,-99.99,,,-99.99,,2013-01-27 05:41:00,
2013-01-27 00:52:00,29.0,24.0,30.41,NW,325,0.0,-999.0,81,-99.99,,,-99.99,,2013-01-27 05:52:00,
2013-01-27 01:02:00,28.0,24.0,30.42,NW,325,0.0,-999.0,84,-99.99,,,-99.99,,2013-01-27 06:02:00,
2013-01-27 01:11:00,28.0,24.0,30.42,NW,325,0.0,-999.0,84,-99.99,,,-99.99,,2013-01-27 06:11:00,
2013-01-27 01:21:00,28.0,25.0,30.42,NW,325,0.0,-999.0,87,-99.99,,,-99.99,,2013-01-27 06:21:00,
2013-01-27 01:32:00,28.0,25.0,30.42,NW,325,0.0,-999.0,88,-99.99,,,-99.99,,2013-01-27 06:32:00,
2013-01-27 01:42:00,28.0,25.0,30.42,NW,325,0.0,-999.0,88,-99.99,,,-99.99,,2013-01-27 06:42:00,
2013-01-27 01:52:00,28.0,25.0,30.43,NW,325,0.0,-999.0,88,-99.99,,,-99.99,,2013-01-27 06:52:00,
2013-01-27 02:01:00,27.0,24.0,30.44,NW,325,0.0,-999.0,89,-99.99,,,-99.99,,2013-01-27 07:01:00,
2013-01-27 02:14:00,27.0,24.0,30.44,NW,325,0.0,-999.0,89,-99.99,,,-99.99,,2013-01-27 07:14:00,
2013-01-27 02:21:00,27.0,24.0,30.45,NW,325,0.0,-999.0,89,-99.99,,,-99.99,,2013-01-27 07:21:00,
2013-01-27 02:32:00,27.0,24.0,30.45,NW,325,0.0,-999.0,90,-99.99,,,-99.99,,2013-01-27 07:32:00,
2013-01-27 02:42:00,27.0,24.0,30.45,NW,325,0.0,-999.0,90,-99.99,,,-99.99,,2013-01-27 07:42:00,
2013-01-27 02:52:00,26.0,23.0,30.45,NW,325,0.0,-999.0,90,-99.99,,,-99.99,,2013-01-27 07:52:00,
2013-01-27 03:02:00,26.0,23.0,30.45,NW,325,0.0,-999.0,90,-99.99,,,-99.99,,2013-01-27 08:02:00,
2013-01-27 03:11:00,26.0,23.0,30.45,NW,325,0.0,-999.0,90,-99.99,,,-99.99,,2013-01-27 08:11:00,
2013-01-27 03:22:00,26.0,23.0,30.45,NW,325,0.0,-999.0,90,-99.99,,,-99.99,,2013-01-27 08:22:00,
2013-01-27 03:32:00,26.0,23.0,30.46,NW,325,0.0,-999.0,90,-99.99,,,-99.99,,2013-01-27 08:32:00,
2013-01-27 03:42:00,26.0,23.0,30.46,NW,325,0.0,-999.0,90,-99.99,,,-99.99,,2013-01-27 08:42:00,
2013-01-27 03:52:00,26.0,23.0,30.46,NW,325,0.0,-999.0,90,-99.99,,,-99.99,,2013-01-27 08:52:00,
2013-01-27 04:03:00,25.0,22.0,30.45,SSW,201,0.0,-999.0,90,-99.99,,,-99.99,,2013-01-27 09:03:00,
2013-01-27 04:11:00,25.0,22.0,30.45,SSW,201,0.0,-999.0,90,-99.99,,,-99.99,,2013-01-27 09:11:00,
2013-01-27 04:22:00,25.0,22.0,30.46,SSW,201,0.0,-999.0,90,-99.99,,,-99.99,,2013-01-27 09:22:00,
2013-01-27 04:32:00,25.0,22.0,30.46,SSW,201,0.0,-999.0,90,-99.99,,,-99.99,,2013-01-27 09:32:00,
2013-01-27 04:42:00,25.0,22.0,30.46,SSW,201,0.0,-999.0,90,-99.99,,,-99.99,,2013-01-27 09:42:00,
2013-01-27 04:51:00,25.0,22.0,30.46,SSW,201,0.0,-999.0,90,-99.99,,,-99.99,,2013-01-27 09:51:00,
2013-01-27 05:01:00,24.0,22.0,30.47,SSW,201,0.0,-999.0,90,-99.99,,,-99.99,,2013-01-27 10:01:00,
2013-01-27 05:11:00,24.0,22.0,30.47,SSW,201,0.0,-999.0,90,-99.99,,,-99.99,,2013-01-27 10:11:00,
2013-01-27 05:21:00,24.0,22.0,30.47,SSW,201,0.0,-999.0,90,-99.99,,,-99.99,,2013-01-27 10:21:00,
2013-01-27 05:32:00,24.0,22.0,30.47,SSW,201,0.0,-999.0,90,-99.99,,,-99.99,,2013-01-27 10:32:00,
2013-01-27 05:42:00,24.0,22.0,30.47,SSW,201,0.0,-999.0,90,-99.99,,,-99.99,,2013-01-27 10:42:00,
2013-01-27 05:51:00,23.0,21.0,30.47,SSW,201,0.0,-999.0,90,-99.99,,,-99.99,,2013-01-27 10:51:00,
2013-01-27 06:01:00,23.0,21.0,30.49,SSW,201,0.0,-999.0,90,-99.99,,,-99.99,,2013-01-27 11:01:00,
2013-01-27 06:11:00,23.0,21.0,30.49,SSW,201,0.0,-999.0,90,-99.99,,,-99.99,,2013-01-27 11:11:00,
2013-01-27 06:21:00,23.0,21.0,30.49,SSW,201,0.0,-999.0,91,-99.99,,,-99.99,,2013-01-27 11:21:00,
2013-01-27 06:32:00,23.0,21.0,30.49,SSW,201,0.0,-999.0,91,-99.99,,,-99.99,,2013-01-27 11:32:00,
2013-01-27 06:42:00,23.0,21.0,30.49,SSW,201,0.0,-999.0,91,-99.99,,,-99.99,,2013-01-27 11:42:00,
2013-01-27 06:52:00,23.0,21.0,30.50,WNW,284,0.0,-999.0,90,-99.99,,,-99.99,,2013-01-27 11:52:00,
2013-01-27 07:02:00,24.0,22.0,30.50,WNW,284,0.0,-999.0,90,-99.99,,,-99.99,,2013-01-27 12:02:00,
2013-01-27 07:12:00,24.0,22.0,30.50,WNW,284,0.0,-999.0,90,-99.99,,,-99.99,,2013-01-27 12:12:00,
2013-01-27 07:22:00,24.0,21.0,30.52,WNW,284,0.0,-999.0,89,-99.99,,,-99.99,,2013-01-27 12:22:00,
2013-01-27 07:32:00,24.0,21.0,30.52,WNW,284,0.0,-999.0,88,-99.99,,,-99.99,,2013-01-27 12:32:00,
2013-01-27 07:42:00,24.0,21.0,30.52,WNW,284,0.0,-999.0,88,-99.99,,,-99.99,,2013-01-27 12:42:00,
2013-01-27 07:52:00,24.0,21.0,30.52,WNW,284,0.0,-999.0,88,-99.99,,,-99.99,,2013-01-27 12:52:00,
2013-01-27 08:02:00,24.0,21.0,30.54,WNW,284,0.0,-999.0,88,-99.99,,,-99.99,,2013-01-27 13:02:00,
2013-01-27 08:11:00,24.0,21.0,30.54,WNW,284,0.0,-999.0,88,-99.99,,,-99.99,,2013-01-27 13:11:00,
2013-01-27 08:22:00,25.0,22.0,30.55,WNW,284,0.0,-999.0,90,-99.99,,,-99.99,,2013-01-27 13:22:00,
2013-01-27 08:32:00,25.0,23.0,30.55,WNW,284,0.0,-999.0,91,-99.99,,,-99.99,,2013-01-27 13:32:00,
2013-01-27 08:42:00,25.0,23.0,30.55,WNW,284,0.0,-999.0,91,-99.99,,,-99.99,,2013-01-27 13:42:00,
2013-01-27 08:52:00,25.0,22.0,30.55,WNW,284,0.0,-999.0,90,-99.99,,,-99.99,,2013-01-27 13:52:00,
2013-01-27 09:02:00,26.0,23.0,30.56,WNW,284,0.0,-999.0,90,-99.99,,,-99.99,,2013-01-27 14:02:00,
2013-01-27 09:12:00,26.0,23.0,30.56,WNW,284,0.0,-999.0,90,-99.99,,,-99.99,,2013-01-27 14:12:00,
2013-01-27 09:22:00,27.0,24.0,30.57,WNW,283,0.0,-999.0,89,-99.99,,,-99.99,,2013-01-27 14:22:00,
2013-01-27 09:33:00,28.0,25.0,30.58,WNW,283,0.0,-999.0,87,-99.99,,,-99.99,,2013-01-27 14:33:00,
2013-01-27 09:43:00,28.0,25.0,30.58,WNW,283,0.0,-999.0,87,-99.99,,,-99.99,,2013-01-27 14:43:00,
2013-01-27 09:52:00,29.0,25.0,30.58,SW,231,0.0,-999.0,84,-99.99,,,-99.99,,2013-01-27 14:52:00,
2013-01-27 10:02:00,30.0,25.0,30.59,SW,231,0.0,-999.0,82,-99.99,,,-99.99,,2013-01-27 15:02:00,
2013-01-27 10:12:00,30.0,25.0,30.59,SW,231,0.0,-999.0,82,-99.99,,,-99.99,,2013-01-27 15:12:00,
2013-01-27 10:22:00,30.0,24.0,30.60,SW,231,0.0,-999.0,78,-99.99,,,-99.99,,2013-01-27 15:22:00,
2013-01-27 10:32:00,31.0,24.0,30.60,SW,231,0.0,-999.0,76,-99.99,,,-99.99,,2013-01-27 15:32:00,
2013-01-27 10:42:00,31.0,24.0,30.60,SW,231,0.0,-999.0,76,-99.99,,,-99.99,,2013-01-27 15:42:00,
2013-01-27 10:52:00,31.0,24.0,30.60,SW,231,0.0,-999.0,76,-99.99,,,-99.99,,2013-01-27 15:52:00,
2013-01-27 11:03:00,32.0,24.0,30.60,ESE,111,0.0,-999.0,72,-99.99,,,-99.99,,2013-01-27 16:03:00,
2013-01-27 11:12:00,32.0,24.0,30.60,ESE,111,0.0,-999.0,72,-99.99,,,-99.99,,2013-01-27 16:12:00,
2013-01-27 11:22:00,33.0,25.0,30.60,South,184,0.0,-999.0,71,-99.99,,,-99.99,,2013-01-27 16:22:00,
2013-01-27 11:32:00,32.0,24.0,30.60,SSE,148,0.0,-999.0,73,-99.99,,,-99.99,,2013-01-27 16:32:00,
2013-01-27 11:42:00,32.0,24.0,30.60,SSE,148,0.0,-999.0,73,-99.99,,,-99.99,,2013-01-27 16:42:00,
2013-01-27 11:52:00,32.0,24.0,30.60,SSE,148,0.0,-999.0,71,-99.99,,,-99.99,,2013-01-27 16:52:00,
2013-01-27 12:02:00,32.0,24.0,30.59,South,179,0.0,-999.0,72,-99.99,,,-99.99,,2013-01-27 17:02:00,
2013-01-27 12:12:00,32.0,24.0,30.59,South,179,0.0,-999.0,72,-99.99,,,-99.99,,2013-01-27 17:12:00,
2013-01-27 12:22:00,33.0,25.0,30.58,South,179,0.0,-999.0,73,-99.99,,,-99.99,,2013-01-27 17:22:00,
2013-01-27 12:32:00,33.0,25.0,30.58,SSW,201,0.0,-999.0,72,-99.99,,,-99.99,,2013-01-27 17:32:00,
2013-01-27 12:42:00,33.0,25.0,30.58,SSW,201,0.0,-999.0,72,-99.99,,,-99.99,,2013-01-27 17:42:00,
2013-01-27 12:52:00,32.0,25.0,30.58,SSW,198,0.0,-999.0,75,-99.99,,,-99.99,,2013-01-27 17:52:00,
2013-01-27 13:03:00,32.0,25.0,30.58,SE,126,0.0,-999.0,74,-99.99,,,-99.99,,2013-01-27 18:03:00,
2013-01-27 13:12:00,32.0,25.0,30.58,SE,126,0.0,-999.0,74,-99.99,,,-99.99,,2013-01-27 18:12:00,
2013-01-27 13:22:00,33.0,26.0,30.57,SSE,155,0.0,-999.0,75,-99.99,,,-99.99,,2013-01-27 18:22:00,
2013-01-27 13:32:00,32.0,24.0,30.56,SSE,167,1.0,-999.0,73,-99.99,,,-99.99,,2013-01-27 18:32:00,
2013-01-27 13:42:00,32.0,24.0,30.56,SSE,167,1.0,-999.0,73,-99.99,,,-99.99,,2013-01-27 18:42:00,
2013-01-27 13:52:00,33.0,25.0,30.55,South,175,0.0,-999.0,72,-99.99,,,-99.99,,2013-01-27 18:52:00,
2013-01-27 14:02:00,34.0,26.0,30.55,WNW,295,1.0,-999.0,72,-99.99,,,-99.99,,2013-01-27 19:02:00,
2013-01-27 14:12:00,34.0,26.0,30.55,WNW,295,1.0,-999.0,72,-99.99,,,-99.99,,2013-01-27 19:12:00,
2013-01-27 14:22:00,35.0,26.0,30.54,SSE,160,1.0,-999.0,69,-99.99,,,-99.99,,2013-01-27 19:22:00,
2013-01-27 14:32:00,35.0,26.0,30.55,South,177,1.0,-999.0,69,-99.99,,,-99.99,,2013-01-27 19:32:00,
2013-01-27 14:42:00,35.0,26.0,30.55,South,177,1.0,-999.0,69,-99.99,,,-99.99,,2013-01-27 19:42:00,
2013-01-27 14:52:00,36.0,26.0,30.54,SW,214,1.0,-999.0,68,-99.99,,,-99.99,,2013-01-27 19:52:00,
2013-01-27 15:03:00,36.0,26.0,30.53,West,276,1.0,-999.0,68,-99.99,,,-99.99,,2013-01-27 20:03:00,
2013-01-27 15:12:00,36.0,26.0,30.53,West,276,1.0,-999.0,68,-99.99,,,-99.99,,2013-01-27 20:12:00,
2013-01-27 15:22:00,36.0,26.0,30.53,South,173,1.0,-999.0,67,-99.99,,,-99.99,,2013-01-27 20:22:00,
2013-01-27 15:33:00,35.0,26.0,30.53,SSW,209,0.0,-999.0,70,-99.99,,,-99.99,,2013-01-27 20:33:00,
2013-01-27 15:42:00,35.0,26.0,30.53,SSW,209,0.0,-999.0,70,-99.99,,,-99.99,,2013-01-27 20:42:00,
2013-01-27 15:52:00,35.0,27.0,30.53,SW,215,0.0,-999.0,71,-99.99,,,-99.99,,2013-01-27 20:52:00,
2013-01-27 16:02:00,35.0,27.0,30.53,South,184,0.0,-999.0,71,-99.99,,,-99.99,,2013-01-27 21:02:00,
2013-01-27 16:12:00,35.0,27.0,30.53,South,184,0.0,-999.0,71,-99.99,,,-99.99,,2013-01-27 21:12:00,
2013-01-27 16:22:00,35.0,27.0,30.53,South,183,0.0,-999.0,71,-99.99,,,-99.99,,2013-01-27 21:22:00,
2013-01-27 16:33:00,34.0,26.0,30.53,SSW,192,0.0,-999.0,71,-99.99,,,-99.99,,2013-01-27 21:33:00,
2013-01-27 16:42:00,34.0,26.0,30.53,SSW,192,0.0,-999.0,71,-99.99,,,-99.99,,2013-01-27 21:42:00,
2013-01-27 16:52:00,34.0,26.0,30.54,SSW,192,0.0,-999.0,73,-99.99,,,-99.99,,2013-01-27 21:52:00,
2013-01-27 17:03:00,34.0,26.0,30.53,SSW,192,0.0,-999.0,73,-99.99,,,-99.99,,2013-01-27 22:03:00,
2013-01-27 17:12:00,34.0,26.0,30.53,SSW,192,0.0,-999.0,73,-99.99,,,-99.99,,2013-01-27 22:12:00,
2013-01-27 17:22:00,34.0,26.0,30.54,SSW,192,0.0,-999.0,72,-99.99,,,-99.99,,2013-01-27 22:22:00,
2013-01-27 17:32:00,34.0,27.0,30.54,SSW,192,0.0,-999.0,74,-99.99,,,-99.99,,2013-01-27 22:32:00,
2013-01-27 17:42:00,34.0,27.0,30.54,SSW,192,0.0,-999.0,74,-99.99,,,-99.99,,2013-01-27 22:42:00,
2013-01-27 17:52:00,34.0,27.0,30.54,SSW,192,0.0,-999.0,74,-99.99,,,-99.99,,2013-01-27 22:52:00,
2013-01-27 18:02:00,33.0,26.0,30.54,SSW,192,0.0,-999.0,74,-99.99,,,-99.99,,2013-01-27 23:02:00,
2013-01-27 18:12:00,33.0,26.0,30.54,SSW,192,0.0,-999.0,74,-99.99,,,-99.99,,2013-01-27 23:12:00,
2013-01-27 18:22:00,33.0,26.0,30.55,SSW,192,0.0,-999.0,74,-99.99,,,-99.99,,2013-01-27 23:22:00,
2013-01-27 18:32:00,33.0,26.0,30.55,SSW,192,0.0,-999.0,74,-99.99,,,-99.99,,2013-01-27 23:32:00,
2013-01-27 18:42:00,33.0,26.0,30.55,SSW,192,0.0,-999.0,74,-99.99,,,-99.99,,2013-01-27 23:42:00,
2013-01-27 18:52:00,33.0,26.0,30.54,SSW,192,0.0,-999.0,75,-99.99,,,-99.99,,2013-01-27 23:52:00,
2013-01-27 19:02:00,33.0,26.0,30.54,SSW,192,0.0,-999.0,76,-99.99,,,-99.99,,2013-01-28 00:02:00,
2013-01-27 19:12:00,33.0,26.0,30.54,SSW,192,0.0,-999.0,76,-99.99,,,-99.99,,2013-01-28 00:12:00,
2013-01-27 19:21:00,33.0,26.0,30.54,SSW,192,0.0,-999.0,76,-99.99,,,-99.99,,2013-01-28 00:21:00,
2013-01-27 19:33:00,33.0,26.0,30.54,SSW,192,0.0,-999.0,75,-99.99,,,-99.99,,2013-01-28 00:33:00,
2013-01-27 19:42:00,33.0,26.0,30.54,SSW,192,0.0,-999.0,75,-99.99,,,-99.99,,2013-01-28 00:42:00,
2013-01-27 19:52:00,33.0,26.0,30.55,SSW,192,0.0,-999.0,76,-99.99,,,-99.99,,2013-01-28 00:52:00,
2013-01-27 20:02:00,33.0,26.0,30.54,SSW,192,0.0,-999.0,75,-99.99,,,-99.99,,2013-01-28 01:02:00,
2013-01-27 20:11:00,33.0,26.0,30.54,SSW,192,0.0,-999.0,75,-99.99,,,-99.99,,2013-01-28 01:11:00,
2013-01-27 20:22:00,33.0,27.0,30.54,SSW,192,0.0,-999.0,77,-99.99,,,-99.99,,2013-01-28 01:22:00,
2013-01-27 20:33:00,33.0,26.0,30.55,SSW,192,0.0,-999.0,75,-99.99,,,-99.99,,2013-01-28 01:33:00,
2013-01-27 20:42:00,33.0,26.0,30.55,SSW,192,0.0,-999.0,75,-99.99,,,-99.99,,2013-01-28 01:42:00,
2013-01-27 20:52:00,33.0,26.0,30.55,SSW,192,0.0,-999.0,75,-99.99,,,-99.99,,2013-01-28 01:52:00,
2013-01-27 21:02:00,33.0,26.0,30.54,SSW,192,0.0,-999.0,75,-99.99,,,-99.99,,2013-01-28 02:02:00,
2013-01-27 21:11:00,33.0,26.0,30.54,SSW,192,0.0,-999.0,75,-99.99,,,-99.99,,2013-01-28 02:11:00,
2013-01-27 21:22:00,33.0,26.0,30.53,SSW,192,0.0,-999.0,74,-99.99,,,-99.99,,2013-01-28 02:22:00,
2013-01-27 21:32:00,33.0,26.0,30.54,SSW,192,0.0,-999.0,75,-99.99,,,-99.99,,2013-01-28 02:32:00,
2013-01-27 21:42:00,33.0,26.0,30.54,SSW,192,0.0,-999.0,75,-99.99,,,-99.99,,2013-01-28 02:42:00,
2013-01-27 21:52:00,33.0,26.0,30.54,SSW,192,0.0,-999.0,75,-99.99,,,-99.99,,2013-01-28 02:52:00,
2013-01-27 22:02:00,33.0,27.0,30.53,SSW,192,0.0,-999.0,77,-99.99,,,-99.99,,2013-01-28 03:02:00,
2013-01-27 22:12:00,33.0,27.0,30.53,SSW,192,0.0,-999.0,77,-99.99,,,-99.99,,2013-01-28 03:12:00,
2013-01-27 22:22:00,33.0,26.0,30.52,SSW,192,0.0,-999.0,76,-99.99,,,-99.99,,2013-01-28 03:22:00,
2013-01-27 22:32:00,33.0,26.0,30.52,SSW,192,0.0,-999.0,74,-99.99,,,-99.99,,2013-01-28 03:32:00,
2013-01-27 22:42:00,33.0,26.0,30.52,SSW,192,0.0,-999.0,74,-99.99,,,-99.99,,2013-01-28 03:42:00,
2013-01-27 22:52:00,33.0,26.0,30.52,SSW,192,0.0,-999.0,75,-99.99,,,-99.99,,2013-01-28 03:52:00,
2013-01-27 23:02:00,33.0,26.0,30.51,SSW,192,0.0,-999.0,74,-99.99,,,-99.99,,2013-01-28 04:02:00,
2013-01-27 23:12:00,33.0,26.0,30.51,SSW,192,0.0,-999.0,74,-99.99,,,-99.99,,2013-01-28 04:12:00,
2013-01-27 23:22:00,33.0,26.0,30.51,SSW,192,0.0,-999.0,75,-99.99,,,-99.99,,2013-01-28 04:22:00,
2013-01-27 23:32:00,33.0,27.0,30.52,SSW,192,0.0,-999.0,79,-99.99,,,-99.99,,2013-01-28 04:32:00,
2013-01-27 23:42:00,33.0,27.0,30.52,SSW,192,0.0,-999.0,79,-99.99,,,-99.99,,2013-01-28 04:42:00,
2013-01-27 23:52:00,33.0,28.0,30.51,SSW,193,0.0,-999.0,81,-99.99,,,-99.99,,2013-01-28 04:52:00,